DELTA 1 DEB, 10754

Orbit data source: Space-Track

DELTA 1 DEB, 10754 is space debris in SSO originally from a launch on Thu, 29 Jul 1976 UTC launched from the Air Force Western Test Range (AFWTR). Debris objects in space refer to the collection of defunct objects orbiting the Earth. Examples of debris include non-operational satellites, rocket bodies, and fragments generated from explosions, collisions, or faulty payload assembly.

Loading next visibility...
Identifier
10754, 1976-077BB
Orbit
SSO
Country
Flag of USUS
Related business
Manufacturer
Unknown
Mission
Spacecraft
Bus & Motor
Unknown
Mass
Unknown
Launch date (UTC)
1976-07-29 (49 years ago)
Launch vehicle
Unknown
Launch site
Air Force Western Test Range (AFWTR)
Object type
Payload
Rocket body
Debris
Shape & HBR
Unknown shape, 0.2 m
Radar Cross Section
Small (<0.1 m²)

Expand to show TLE details & history
Last TLE update: 19 hours ago

TLE from 19 hours ago
0 DELTA 1 DEB
1 10754U 76077BB  25293.46033044 -.00000030  00000-0  14463-3 0  9994
2 10754 102.6906 275.4536 0122907 143.4543 348.2509 12.21680127196164
Epoch: 2025-10-20T11:02Z
TLE epoch observation values (Epoch: 2025-10-20T11:02:52.550Z)
Latitude
47.11503°
Longitude
-85.46626°
Altitude
1,496.441 km
Speed
7.163 km/s
True Right ascension
07h 17m 39s
True Declination
46° 57' 35"
Sunlit
Object was in daylight at epoch
Visualization orbit readout
Latitude
Unknown
Longitude
Unknown
Altitude
Unknown
Speed
Unknown
Apparent Right ascension
Unknown
Apparent Declination
Unknown
Sunlit
N/A
Visualization observer readout
Local Sidereal Time
00:41:34
Azimuth
Unknown
Elevation
Unknown
Doppler factor
Unknown
Orbital elements
Apogee altitude
1,680.718 km
Perigee altitude
1,485.026 km
Semi-major axis
7,961.009 km
Eccentricity
0.01229
Inclination
102.6906°
RAAN
275.4536°
Arg. of periapsis
143.4543°
True anomaly
347.95973°
Mean anomaly
348.2509°
Eccentric anomaly
348.10576°
Mean motion
3.05556 °/min
Orbital period
117.82 mins
BSTAR
0.00014463
Loading maneuver chart data...
Computing Atmospheric mass density...
Loading historical data...
Loading historical data...
Loading historical data...
Loading historical data...
Loading historical data...
Loading historical data...
Loading historical data...

Documentation

Showing up to 5 results
|